"","Annual Maintenance Schedule"
"","Filename: 042524_AMS_051124_051526.csv"
"","Report for: Capacity Analysis: 05/11/2024 - 05/15/2026"
"","Report downloaded: 05/09/2024 08:50:07 EDT"
"","Study Week","CSO Supply Resource Capacity MW","CSO Demand Resource Capacity MW","External Node Capacity MW","CSO Non-Commercial Capacity MW","CSO Planned Outage MW","Unplanned Outage Allowance MW","CSO Generation at Risk Due to Gas Supply MW","CSO Net Available Capacity MW","Peak Load Forecast MW","Operating Reserve Requirement MW","CSO Net Required Capacity MW","CSO Operable Capacity Margin MW","Operable Capacity Season Label","Season Minimum Operable Capacity Flag"
"","Date","1","2","3","4","5","6","7","8","9","10","11","12","13","14"
"","05/11/2024",28339.000,395.000,894.000,15.000,4359.000,3400.000,0.000,21884.000,18909.000,2305.000,21214.000,670.000,Spring 2024,Y
"","05/18/2024",28339.000,395.000,894.000,15.000,3219.000,3400.000,0.000,23024.000,19803.000,2305.000,22108.000,916.000,Spring 2024,N
"","05/25/2024",28339.000,395.000,894.000,15.000,941.000,3400.000,0.000,25302.000,20785.000,2305.000,23090.000,2212.000,Spring 2024,N
"","06/01/2024",27205.000,404.000,1128.000,256.000,236.000,2800.000,0.000,25957.000,24553.000,2305.000,26858.000,-901.000,Summer 2024,Y
"","06/08/2024",27205.000,404.000,1188.000,256.000,240.000,2800.000,0.000,26013.000,24553.000,2305.000,26858.000,-845.000,Summer 2024,N
"","06/15/2024",27205.000,404.000,1188.000,256.000,235.000,2800.000,0.000,26018.000,24553.000,2305.000,26858.000,-840.000,Summer 2024,N
"","06/22/2024",27205.000,404.000,1188.000,256.000,235.000,2800.000,0.000,26018.000,24553.000,2305.000,26858.000,-840.000,Summer 2024,N
"","06/29/2024",27304.000,427.000,1194.000,315.000,283.000,2100.000,0.000,26857.000,24553.000,2305.000,26858.000,-1.000,Summer 2024,N
"","07/06/2024",27304.000,427.000,1194.000,315.000,421.000,2100.000,0.000,26719.000,24553.000,2305.000,26858.000,-139.000,Summer 2024,N
"","07/13/2024",27304.000,427.000,1194.000,315.000,434.000,2100.000,0.000,26706.000,24553.000,2305.000,26858.000,-152.000,Summer 2024,N
"","07/20/2024",27304.000,427.000,1194.000,315.000,416.000,2100.000,0.000,26724.000,24553.000,2305.000,26858.000,-134.000,Summer 2024,N
"","07/27/2024",27304.000,427.000,1194.000,315.000,286.000,2100.000,0.000,26854.000,24553.000,2305.000,26858.000,-4.000,Summer 2024,N
"","08/03/2024",27304.000,427.000,1194.000,315.000,353.000,2100.000,0.000,26787.000,24553.000,2305.000,26858.000,-71.000,Summer 2024,N
"","08/10/2024",27304.000,427.000,1194.000,315.000,340.000,2100.000,0.000,26800.000,24553.000,2305.000,26858.000,-58.000,Summer 2024,N
"","08/17/2024",27304.000,427.000,1194.000,315.000,321.000,2100.000,0.000,26819.000,24553.000,2305.000,26858.000,-39.000,Summer 2024,N
"","08/24/2024",27304.000,427.000,1194.000,315.000,328.000,2100.000,0.000,26812.000,24553.000,2305.000,26858.000,-46.000,Summer 2024,N
"","08/31/2024",27304.000,427.000,1194.000,315.000,334.000,2100.000,0.000,26806.000,24553.000,2305.000,26858.000,-52.000,Summer 2024,N
"","09/07/2024",27304.000,427.000,1194.000,315.000,383.000,2100.000,0.000,26757.000,24553.000,2305.000,26858.000,-101.000,Summer 2024,N
"","09/14/2024",27304.000,427.000,1194.000,315.000,444.000,2100.000,0.000,26696.000,24553.000,2305.000,26858.000,-162.000,Summer 2024,N
"","09/21/2024",27304.000,427.000,677.000,315.000,1633.000,2100.000,0.000,24990.000,20532.000,2305.000,22837.000,2153.000,Fall 2024,N
"","09/28/2024",27655.000,427.000,677.000,360.000,3837.000,2800.000,0.000,22482.000,15511.000,2305.000,17816.000,4666.000,Fall 2024,N
"","10/05/2024",27655.000,427.000,677.000,360.000,7116.000,2800.000,0.000,19203.000,15546.000,2305.000,17851.000,1352.000,Fall 2024,N
"","10/12/2024",27655.000,427.000,677.000,360.000,7120.000,2800.000,0.000,19199.000,16461.000,2305.000,18766.000,433.000,Fall 2024,N
"","10/19/2024",27655.000,427.000,1161.000,360.000,7558.000,2800.000,0.000,19245.000,16821.000,2305.000,19126.000,119.000,Fall 2024,Y
"","10/26/2024",27655.000,427.000,1161.000,360.000,6067.000,3600.000,0.000,19936.000,17026.000,2305.000,19331.000,605.000,Fall 2024,N
"","11/02/2024",27655.000,427.000,1161.000,360.000,5188.000,3600.000,0.000,20815.000,17140.000,2305.000,19445.000,1370.000,Fall 2024,N
"","11/09/2024",27655.000,427.000,1161.000,360.000,3462.000,3600.000,0.000,22541.000,17481.000,2305.000,19786.000,2755.000,Fall 2024,N
"","11/16/2024",27655.000,427.000,1161.000,360.000,3025.000,3600.000,0.000,22978.000,18211.000,2305.000,20516.000,2462.000,Fall 2024,N
"","11/23/2024",27655.000,427.000,1161.000,360.000,961.000,3600.000,1471.000,23571.000,18923.000,2305.000,21228.000,2343.000,Fall 2024,N
"","11/30/2024",27862.000,427.000,1161.000,360.000,1321.000,3200.000,1357.000,23932.000,19220.000,2305.000,21525.000,2407.000,Winter 2024/2025,N
"","12/07/2024",27862.000,427.000,1161.000,360.000,399.000,3200.000,2219.000,23992.000,19506.000,2305.000,21811.000,2181.000,Winter 2024/2025,N
"","12/14/2024",27862.000,427.000,1161.000,360.000,248.000,3200.000,2728.000,23634.000,19517.000,2305.000,21822.000,1812.000,Winter 2024/2025,N
"","12/21/2024",27862.000,427.000,1161.000,360.000,231.000,3200.000,3117.000,23262.000,19578.000,2305.000,21883.000,1379.000,Winter 2024/2025,N
"","12/28/2024",27862.000,427.000,1161.000,360.000,231.000,3200.000,3716.000,22663.000,19849.000,2305.000,22154.000,509.000,Winter 2024/2025,Y
"","01/04/2025",27862.000,427.000,1161.000,360.000,20.000,2800.000,3711.000,23279.000,20308.000,2305.000,22613.000,666.000,Winter 2024/2025,N
"","01/11/2025",27862.000,427.000,1161.000,360.000,20.000,2800.000,3566.000,23424.000,20308.000,2305.000,22613.000,811.000,Winter 2024/2025,N
"","01/18/2025",27862.000,427.000,1161.000,360.000,20.000,2800.000,3117.000,23873.000,20308.000,2305.000,22613.000,1260.000,Winter 2024/2025,N
"","01/25/2025",27862.000,427.000,1161.000,360.000,20.000,2800.000,2818.000,24172.000,20088.000,2305.000,22393.000,1779.000,Winter 2024/2025,N
"","02/01/2025",27862.000,427.000,1161.000,360.000,20.000,3100.000,2519.000,24171.000,19824.000,2305.000,22129.000,2042.000,Winter 2024/2025,N
"","02/08/2025",27862.000,427.000,1161.000,360.000,20.000,3100.000,2220.000,24470.000,19796.000,2305.000,22101.000,2369.000,Winter 2024/2025,N
"","02/15/2025",27862.000,427.000,1161.000,360.000,20.000,3100.000,1771.000,24919.000,19536.000,2305.000,21841.000,3078.000,Winter 2024/2025,N
"","02/22/2025",27862.000,427.000,1161.000,360.000,20.000,3100.000,1472.000,25218.000,18560.000,2305.000,20865.000,4353.000,Winter 2024/2025,N
"","03/01/2025",27862.000,427.000,1161.000,360.000,177.000,2200.000,240.000,27193.000,18215.000,2305.000,20520.000,6673.000,Winter 2024/2025,N
"","03/08/2025",27862.000,427.000,1161.000,360.000,422.000,2200.000,0.000,27188.000,18022.000,2305.000,20327.000,6861.000,Winter 2024/2025,N
"","03/15/2025",27862.000,427.000,1161.000,360.000,422.000,2200.000,0.000,27188.000,17661.000,2305.000,19966.000,7222.000,Winter 2024/2025,N
"","03/22/2025",27862.000,427.000,1161.000,360.000,590.000,2200.000,0.000,27020.000,17103.000,2305.000,19408.000,7612.000,Winter 2024/2025,N
"","03/29/2025",27655.000,427.000,1161.000,360.000,973.000,2700.000,0.000,25930.000,16516.000,2305.000,18821.000,7109.000,Winter 2024/2025,N
"","04/05/2025",27655.000,427.000,1161.000,360.000,5470.000,2700.000,0.000,21433.000,16267.000,2305.000,18572.000,2861.000,Spring 2025,N
"","04/12/2025",27655.000,427.000,1161.000,360.000,4927.000,2700.000,0.000,21976.000,15764.000,2305.000,18069.000,3907.000,Spring 2025,N
"","04/19/2025",27655.000,427.000,1161.000,360.000,3904.000,2700.000,0.000,22999.000,15502.000,2305.000,17807.000,5192.000,Spring 2025,N
"","04/26/2025",27655.000,427.000,1161.000,360.000,2657.000,3400.000,0.000,23546.000,15476.000,2305.000,17781.000,5765.000,Spring 2025,N
"","05/03/2025",27655.000,427.000,1161.000,360.000,3500.000,3400.000,0.000,22703.000,17931.000,2305.000,20236.000,2467.000,Spring 2025,N
"","05/10/2025",27655.000,427.000,1161.000,360.000,3382.000,3400.000,0.000,22821.000,18900.000,2305.000,21205.000,1616.000,Spring 2025,Y
"","05/17/2025",27655.000,427.000,1161.000,360.000,1123.000,3400.000,0.000,25080.000,19799.000,2305.000,22104.000,2976.000,Spring 2025,N
"","05/24/2025",27655.000,427.000,1161.000,360.000,1081.000,3400.000,0.000,25122.000,20787.000,2305.000,23092.000,2030.000,Spring 2025,N
"","05/31/2025",26403.000,521.000,1248.000,360.000,0.000,2800.000,0.000,25732.000,24579.000,2305.000,26884.000,-1152.000,Summer 2025,Y
"","06/07/2025",26403.000,521.000,1248.000,360.000,0.000,2800.000,0.000,25732.000,24579.000,2305.000,26884.000,-1152.000,Summer 2025,N
"","06/14/2025",26403.000,521.000,1248.000,360.000,0.000,2800.000,0.000,25732.000,24579.000,2305.000,26884.000,-1152.000,Summer 2025,N
"","06/21/2025",26403.000,521.000,1248.000,360.000,0.000,2800.000,0.000,25732.000,24579.000,2305.000,26884.000,-1152.000,Summer 2025,N
"","06/28/2025",26403.000,521.000,1248.000,360.000,0.000,2800.000,0.000,25732.000,24579.000,2305.000,26884.000,-1152.000,Summer 2025,N
"","07/05/2025",26403.000,521.000,1248.000,360.000,0.000,2100.000,0.000,26432.000,24579.000,2305.000,26884.000,-452.000,Summer 2025,N
"","07/12/2025",26403.000,521.000,1248.000,360.000,0.000,2100.000,0.000,26432.000,24579.000,2305.000,26884.000,-452.000,Summer 2025,N
"","07/19/2025",26403.000,521.000,1248.000,360.000,0.000,2100.000,0.000,26432.000,24579.000,2305.000,26884.000,-452.000,Summer 2025,N
"","07/26/2025",26403.000,521.000,1248.000,360.000,0.000,2100.000,0.000,26432.000,24579.000,2305.000,26884.000,-452.000,Summer 2025,N
"","08/02/2025",26403.000,521.000,1248.000,360.000,42.000,2100.000,0.000,26390.000,24579.000,2305.000,26884.000,-494.000,Summer 2025,N
"","08/09/2025",26403.000,521.000,1248.000,360.000,42.000,2100.000,0.000,26390.000,24579.000,2305.000,26884.000,-494.000,Summer 2025,N
"","08/16/2025",26403.000,521.000,1248.000,360.000,42.000,2100.000,0.000,26390.000,24579.000,2305.000,26884.000,-494.000,Summer 2025,N
"","08/23/2025",26403.000,521.000,1248.000,360.000,42.000,2100.000,0.000,26390.000,24579.000,2305.000,26884.000,-494.000,Summer 2025,N
"","08/30/2025",26403.000,521.000,1248.000,360.000,0.000,2100.000,0.000,26432.000,24579.000,2305.000,26884.000,-452.000,Summer 2025,N
"","09/06/2025",26403.000,521.000,1248.000,360.000,0.000,2100.000,0.000,26432.000,24579.000,2305.000,26884.000,-452.000,Summer 2025,N
"","09/13/2025",26403.000,521.000,1248.000,360.000,0.000,2100.000,0.000,26432.000,24579.000,2305.000,26884.000,-452.000,Summer 2025,N
"","09/20/2025",26403.000,521.000,1248.000,360.000,270.000,2100.000,0.000,26162.000,20534.000,2305.000,22839.000,3323.000,Fall 2025,N
"","09/27/2025",26629.000,521.000,1248.000,360.000,476.000,2800.000,0.000,25482.000,15746.000,2305.000,18051.000,7431.000,Fall 2025,N
"","10/04/2025",26629.000,521.000,1248.000,360.000,2066.000,2800.000,0.000,23892.000,15781.000,2305.000,18086.000,5806.000,Fall 2025,N
"","10/11/2025",26629.000,521.000,1248.000,360.000,2972.000,2800.000,0.000,22986.000,16714.000,2305.000,19019.000,3967.000,Fall 2025,N
"","10/18/2025",26629.000,521.000,1248.000,360.000,3568.000,2800.000,0.000,22390.000,17081.000,2305.000,19386.000,3004.000,Fall 2025,N
"","10/25/2025",26629.000,521.000,1248.000,360.000,2935.000,2800.000,0.000,23023.000,17289.000,2305.000,19594.000,3429.000,Fall 2025,N
"","11/01/2025",26629.000,521.000,1248.000,360.000,595.000,3600.000,21.000,24542.000,17406.000,2305.000,19711.000,4831.000,Fall 2025,N
"","11/08/2025",26629.000,521.000,1248.000,360.000,554.000,3600.000,249.000,24355.000,17753.000,2305.000,20058.000,4297.000,Fall 2025,N
"","11/15/2025",26629.000,521.000,1248.000,360.000,639.000,3600.000,749.000,23770.000,18497.000,2305.000,20802.000,2968.000,Fall 2025,N
"","11/22/2025",26629.000,521.000,1248.000,360.000,636.000,3600.000,1041.000,23481.000,19223.000,2305.000,21528.000,1953.000,Fall 2025,Y
"","11/29/2025",26786.000,520.000,1248.000,360.000,15.000,3200.000,1804.000,23895.000,19529.000,2305.000,21834.000,2061.000,Winter 2025/2026,N
"","12/06/2025",26786.000,520.000,1248.000,360.000,290.000,3200.000,2093.000,23331.000,19821.000,2305.000,22126.000,1205.000,Winter 2025/2026,N
"","12/13/2025",26786.000,520.000,1248.000,360.000,15.000,3200.000,2745.000,22954.000,19832.000,2305.000,22137.000,817.000,Winter 2025/2026,N
"","12/20/2025",26786.000,520.000,1248.000,360.000,0.000,3200.000,3134.000,22580.000,19895.000,2305.000,22200.000,380.000,Winter 2025/2026,N
"","12/27/2025",26786.000,520.000,1248.000,360.000,0.000,3200.000,3733.000,21981.000,19895.000,2305.000,22200.000,-219.000,Winter 2025/2026,N
"","01/03/2026",26786.000,520.000,1248.000,360.000,0.000,2800.000,3728.000,22386.000,20639.000,2305.000,22944.000,-558.000,Winter 2025/2026,Y
"","01/10/2026",26786.000,520.000,1248.000,360.000,0.000,2800.000,3583.000,22531.000,20639.000,2305.000,22944.000,-413.000,Winter 2025/2026,N
"","01/17/2026",26786.000,520.000,1248.000,360.000,0.000,2800.000,3134.000,22980.000,20639.000,2305.000,22944.000,36.000,Winter 2025/2026,N
"","01/24/2026",26786.000,520.000,1248.000,360.000,0.000,2800.000,2835.000,23279.000,20415.000,2305.000,22720.000,559.000,Winter 2025/2026,N
"","01/31/2026",26786.000,520.000,1248.000,360.000,0.000,3100.000,2536.000,23278.000,20415.000,2305.000,22720.000,558.000,Winter 2025/2026,N
"","02/07/2026",26786.000,520.000,1248.000,360.000,0.000,3100.000,2237.000,23577.000,20146.000,2305.000,22451.000,1126.000,Winter 2025/2026,N
"","02/14/2026",26786.000,520.000,1248.000,360.000,0.000,3100.000,1788.000,24026.000,20117.000,2305.000,22422.000,1604.000,Winter 2025/2026,N
"","02/21/2026",26786.000,520.000,1248.000,360.000,0.000,3100.000,1489.000,24325.000,19852.000,2305.000,22157.000,2168.000,Winter 2025/2026,N
"","02/28/2026",26786.000,520.000,1248.000,360.000,0.000,2200.000,414.000,26300.000,18857.000,2305.000,21162.000,5138.000,Winter 2025/2026,N
"","03/07/2026",26786.000,520.000,1248.000,360.000,509.000,2200.000,0.000,26205.000,18505.000,2305.000,20810.000,5395.000,Winter 2025/2026,N
"","03/14/2026",26786.000,520.000,1248.000,360.000,263.000,2200.000,0.000,26451.000,18308.000,2305.000,20613.000,5838.000,Winter 2025/2026,N
"","03/21/2026",26786.000,520.000,1248.000,360.000,543.000,2200.000,0.000,26171.000,17941.000,2305.000,20246.000,5925.000,Winter 2025/2026,N
"","03/28/2026",26629.000,521.000,1248.000,360.000,31.000,2700.000,0.000,26027.000,17372.000,2305.000,19677.000,6350.000,Winter 2025/2026,N
"","04/04/2026",26629.000,521.000,1248.000,360.000,1015.000,2700.000,0.000,25043.000,16770.000,2305.000,19075.000,5968.000,Spring 2026,Y
"","04/11/2026",26629.000,521.000,1248.000,360.000,936.000,2700.000,0.000,25122.000,16516.000,2305.000,18821.000,6301.000,Spring 2026,N
"","04/18/2026",26629.000,521.000,1248.000,360.000,465.000,2700.000,0.000,25593.000,16003.000,2305.000,18308.000,7285.000,Spring 2026,N
"","04/25/2026",26629.000,521.000,1248.000,360.000,191.000,2700.000,0.000,25867.000,15737.000,2305.000,18042.000,7825.000,Spring 2026,N
"","05/02/2026",26629.000,521.000,1248.000,360.000,0.000,2000.000,0.000,26758.000,15710.000,1800.000,17510.000,9248.000,Spring 2026,N
"","05/09/2026",26629.000,521.000,1248.000,360.000,0.000,2000.000,0.000,26758.000,17995.000,1800.000,19795.000,6963.000,Spring 2026,N
"","105 lines"